ランキン彗星

C/2020 B3 ( Rankin )

English version
Home page
Updated on June 14, 2021

---------------------------------------------------------------------

・ プロフィール

発見日 2020年1月29日
発見光度 19.3等
発見者 David Rankin (Mount Lemmon Survey)

・ 写真集

・ 軌道要素

Epoch 2019 Oct. 4.0 TT = JDT 2458760.5
T 2019 Oct. 19.89320 TT                                 Rudenko
q   3.3444421            (2000.0)            P               Q
z  +0.0004375      Peri.  325.09042     -0.87016271     -0.49145630
 +/-0.0000093      Node   185.82619     +0.49271663     -0.86878322
e   0.9985370      Incl.   20.70053     -0.00686792     -0.06071589
From 184 observations 2020 Jan. 19-May 25, mean residual 0".6.

・ 光度変化

        m1 = 10.5 + 5 logΔ + 10.0 log r

---------------------------------------------------------------------

軌道要素はM.P.E.C. 2020-U270に掲載されたものです。
光度グラフはComet for Windowsで作成したものです。

---------------------------------------------------------------------

Copyright(C) Seiichi Yoshida (comet@aerith.net). All rights reserved.